Fort St. John

Airport
ICAO code: 
CYXJ
IATA Code: 
YXJ
Summary
ICAO Region: 
NAM
Territory: 
Location: 
Fort St. John, British Columbia,
Serving: 
Fort St. John
Elevation: 
2280 ft
Coordinates: 
Aerial View: 
56° 14' 12.93" N, 120° 44' 25.146" W
Metar
Observation
CYXJ 212300Z 18006KT 60SM SCT080 BKN120 M09/M11 A2998 RMK AC3AC4 SLP207
Station
Fort St John, B. C.
Date/Time
2022-01-21 23:00:00
Wind direction
180°
Wind speed
06 kts
Lowest cloud amount
scattered clouds
Temperature
-9°C
Dew point
-11°C
Humidity
85%
Weather condition
n/a

Description

Fort St. John Airport, North Peace Regional Airport, or North Peace Airport, is located at Fort St. John, British Columbia, Canada.

Climatology

Humid Continental climate (Köppen climate classification Dfb) - Variable weather patterns and a large seasonal temperature variance. Summers are often warm and humid with frequent thunderstorms and winters can be very cold with frequent snowfall and persistent snow cover.

Runways

Designator Length Width Surface Rops
2/20 2042 61 ASP Yes/Yes
11/29 2103 46 ASP Yes/Yes
Airport map: 
Aerial View: 

Accidents and Serious Incidents at or in the vicinity of CYXJ

SKYbrary Partners:

Safety knowledge contributed by: